EDT,Max TemperatureF,Mean TemperatureF,Min TemperatureF,Max Dew PointF,MeanDew PointF,Min DewpointF,Max Humidity, Mean Humidity, Min Humidity, Max Sea Level PressureIn, Mean Sea Level PressureIn, Min Sea Level PressureIn, Max VisibilityMiles, Mean VisibilityMiles, Min VisibilityMiles, Max Wind SpeedMPH, Mean Wind SpeedMPH, Max Gust SpeedMPH,PrecipitationIn, CloudCover, Events, WindDirDegrees
2013-9-1,91,82,73,74,72,69,96,79,50,30.03,29.97,29.92,10,10,2,31,5,43,0.05,3,Rain-Thunderstorm,195
2013-9-2,93,82,73,74,72,69,94,76,47,30.04,29.99,29.94,10,10,10,12,6,29,0.01,1,Thunderstorm,194
2013-9-3,91,82,73,75,72,65,97,74,45,30.04,29.99,29.94,10,10,10,13,6,,0.00,1,,211
2013-9-4,91,84,77,75,72,68,88,72,47,30.12,30.06,30.01,10,10,10,15,3,,0.03,1,Rain-Thunderstorm,204
2013-9-5,93,83,75,76,73,70,87,76,55,30.13,30.08,30.03,10,10,10,10,4,,0.00,1,,84
2013-9-6,91,81,71,77,73,68,100,89,53,30.08,30.04,29.99,10,8,0,23,4,34,0.41,4,Fog-Rain-Thunderstorm,69
2013-9-7,89,81,73,75,72,70,100,85,53,30.04,30.00,29.97,10,8,2,24,4,43,2.02,5,Rain-Thunderstorm,29
2013-9-8,90,82,73,73,71,68,93,74,52,30.00,29.96,29.91,10,10,10,12,5,,0.00,1,,29
2013-9-9,90,82,75,73,70,65,88,70,45,30.07,30.01,29.96,10,10,10,14,7,20,0.00,1,,54
2013-9-10,89,82,75,73,70,64,91,71,45,30.12,30.08,30.03,10,10,10,16,8,22,0.00,1,,67
2013-9-11,90,82,75,74,71,67,94,72,51,30.11,30.07,30.03,10,10,10,15,7,20,0.00,0,,58
2013-9-12,90,82,75,75,73,69,94,77,53,30.04,30.00,29.92,10,10,10,13,2,,0.00,2,Rain,84
2013-9-13,91,82,75,74,72,67,94,74,48,29.93,29.88,29.81,10,10,10,15,3,16,0.00,2,Thunderstorm,182
2013-9-14,93,84,77,75,72,68,90,73,45,30.01,29.92,29.86,10,10,10,15,5,,0.00,2,,140
2013-9-15,91,83,77,75,74,71,90,79,57,30.10,30.05,30.00,10,10,10,20,4,24,0.00,1,,90
2013-9-16,91,82,73,74,72,69,93,77,50,30.11,30.06,30.01,10,10,8,15,5,23,0.00,1,Rain,81
2013-9-17,90,82,75,74,72,69,91,77,55,30.09,30.04,29.99,10,10,10,20,6,29,0.02,1,,52
2013-9-18,88,80,75,74,72,69,91,79,61,30.07,30.03,30.00,10,10,5,16,8,23,0.03,3,Rain,47
2013-9-19,89,80,73,73,71,68,93,78,51,30.08,30.04,30.01,10,10,10,16,7,23,0.02,2,Rain,61
2013-9-20,89,80,73,70,68,65,87,70,49,30.06,30.01,29.94,10,10,10,14,5,,0.00,1,,57
2013-9-21,90,80,72,70,68,63,93,71,43,29.96,29.87,29.79,10,10,10,12,2,,0.00,2,,132
2013-9-22,91,82,73,74,72,68,94,83,50,29.88,29.82,29.78,10,8,2,28,8,40,0.26,3,Rain-Thunderstorm,218
2013-9-23,86,78,73,75,73,72,100,94,67,29.99,29.95,29.87,10,7,1,10,4,,1.12,5,Rain,165
2013-9-24,84,78,73,75,74,72,97,89,69,29.99,29.92,29.85,10,8,1,12,6,,0.48,6,Rain,193
2013-9-25,82,77,73,74,72,69,96,85,69,29.87,29.84,29.81,10,10,10,15,8,21,0.01,4,Rain,242
2013-9-26,91,83,73,76,71,61,96,78,36,29.89,29.83,29.79,10,10,10,14,9,23,0.00,3,,277
2013-9-27,82,76,71,72,70,68,94,86,69,29.99,29.93,29.88,10,9,3,13,7,17,0.02,6,Rain,357
2013-9-28,84,77,72,72,69,66,94,79,60,30.04,30.00,29.95,10,10,10,17,7,,0.00,5,,33
2013-9-29,89,79,72,69,67,62,91,72,44,30.02,29.99,29.94,10,10,10,17,6,23,0.00,2,,11
2013-9-30,88,79,70,71,69,65,94,75,46,30.05,29.99,29.94,10,10,10,10,3,17,0.00,4,,50